Lapse_Rate
5.2 5.2 5.1 5.0 4.1 3.6 3.3 3.3 3.4 3.6 3.9 4.0 4.0 4.2 4.2 4.1 3.9 3.8 4.0 4.1 4.0 4.1
4.5 4.5 4.7 4.5 4.1 3.7 2.9 2.7 2.8 3.1 3.2 3.4 3.6 3.6 3.7 3.6 3.8 4.1 4.1 4.1 4.2 4.3
4.3 4.1 3.4 3.3 3.2 3.1 3.0 2.8 2.6 2.2 2.3 2.4 2.7 3.2 3.5 3.4 3.5 3.6 3.5 3.5 3.7 3.9
3.2 3.3 3.1 3.5 3.2 2.9 2.7 2.5 2.6 2.5 2.3 2.5 3.0 3.3 3.4 2.9 2.5 2.7 2.8 2.9 3.4 3.8
3.1 3.2 2.9 2.8 2.5 2.4 2.2 2.5 2.6 2.5 2.7 2.2 1.7 1.7 1.9 2.2 2.5 2.7 2.8 2.9 3.2 3.3
2.8 2.9 2.9 2.6 2.5 2.4 2.5 2.3 2.3 2.0 1.9 1.8 1.9 1.8 1.8 2.0 2.1 2.3 2.7 2.7 2.8 2.8
2.2 2.2 2.2 2.2 2.2 2.0 1.8 1.7 1.8 1.9 2.0 2.1 2.2 2.2 2.3 2.4 2.5 2.5 2.1 2.2 2.5 2.9
1.3 1.4 1.5 1.5 1.5 1.6 1.6 1.6 1.7 1.9 1.9 2.0 2.0 2.1 2.4 2.4 2.1 2.0 2.1 2.3 2.6 2.7
1.4 1.3 1.3 1.4 1.4 1.4 1.5 1.6 1.7 1.7 1.8 2.0 2.1 2.2 2.0 2.0 2.0 2.2 2.4 2.5 2.5 2.7
1.8 1.6 1.6 1.7 1.8 1.7 1.6 1.5 1.6 1.7 1.7 1.9 2.0 2.2 2.2 2.3 2.4 2.5 2.7 2.8 2.8 2.8
1.8 1.8 1.9 1.8 1.8 1.7 1.9 1.6 1.5 1.6 1.6 1.7 1.9 1.9 2.0 2.0 2.1 2.2 2.4 2.6 2.7 2.7
1.9 1.9 1.7 1.8 1.7 1.6 1.5 1.4 1.5 1.5 1.5 1.6 1.7 1.8 1.9 1.9 2.0 2.1 2.2 2.3 2.5 2.6
1.7 1.7 1.9 2.0 2.1 1.9 1.7 1.7 1.8 1.6 1.6 1.8 1.9 1.9 1.9 2.0 1.9 2.0 2.1 2.3 2.4 2.5
1.8 1.7 1.6 1.7 1.9 2.1 2.1 2.0 2.1 2.2 2.1 2.1 2.2 2.2 2.2 2.4 2.5 2.3 2.3 2.4 2.5 2.4
Wind_Speed
8 6 6 6 6 4 4 4 8 9 10 10 11 11 12 8 7 8 5 7 5 4
6 6 7 7 6 4 5 6 9 10 8 8 9 10 9 5 4 6 4 5 5 4
4 5 5 5 6 6 6 8 8 7 7 7 7 8 8 5 5 5 3 3 5 3
4 5 4 4 5 6 7 8 7 7 6 5 5 5 4 4 4 4 4 3 4 4
7 6 6 5 5 6 5 7 7 7 5 4 4 4 3 3 3 3 3 2 2 3
10 9 9 8 7 7 5 5 5 5 4 3 3 2 2 2 2 1 1 2 2 3
8 8 7 7 7 6 6 4 3 2 1 2 3 3 2 2 2 2 3 4 4 4
5 5 4 4 5 4 4 3 1 0 1 2 3 4 3 3 4 5 5 5 8 8
4 4 3 3 2 1 0 0 1 3 4 3 4 10 11 10 6 7 8 7 7 10
3 3 3 3 2 2 2 2 3 4 4 5 6 13 15 16 9 8 7 8 8 8
4 4 4 3 4 4 3 4 4 5 5 6 7 16 17 19 12 10 12 11 9 10
4 5 5 5 5 4 4 5 5 6 6 7 8 17 19 18 11 12 12 10 13 10
4 3 5 5 6 6 5 8 7 8 8 11 9 15 18 17 9 11 10 11 13 25
7 7 5 5 4 5 6 7 6 9 7 8 9 9 18 20 12 10 9 9 9 10
Wind_Direction
127 136 140 142 144 140 137 124 127 119 118 118 114 111 108 99 97 95 95 96 85 92
117 136 148 135 127 122 113 126 122 124 115 116 118 115 109 100 98 98 94 94 97 95
110 111 119 123 133 133 128 131 129 120 121 119 109 110 110 103 104 107 99 117 120 113
87 103 120 128 133 136 128 138 133 133 129 126 117 112 103 102 114 118 124 107 110 118
55 59 66 75 84 105 111 120 124 124 125 130 126 123 125 146 116 141 145 151 146 159
53 59 58 54 51 57 75 88 109 122 125 125 125 141 158 167 174 173 179 207 210 205
43 45 49 54 61 63 51 49 55 63 113 152 169 188 214 215 221 241 240 236 229 231
36 40 42 47 46 44 57 77 89 162 226 218 218 233 206 235 226 228 238 238 238 245
10 12 22 26 37 33 11 304 307 287 278 246 245 248 254 247 213 228 229 230 232 241
332 331 325 315 297 269 267 274 264 249 249 253 254 262 265 267 270 267 240 233 239 238
313 298 286 274 269 264 259 262 266 260 254 257 260 267 268 270 268 261 258 252 235 232
282 291 291 280 268 257 253 246 245 260 258 259 262 269 273 274 273 269 263 257 249 242
311 285 273 271 271 267 257 260 256 255 249 252 260 267 274 272 265 259 260 257 253 255
314 306 283 270 260 256 250 262 256 257 256 251 254 255 269 271 265 264 266 261 257 251